Isola 2000, France 16 day weather forecast

Slopes altitude range 1800 m - 2610m

Number of lifts: 22 Pistes: 120km

In some cases the lift and piste totals shown are for the ski domain (e.g. Three Valleys) rather than individual resort (e.g. Courchevel)

Overview

The 16 day weather forecast is fully updated 4 times every day.

    • Sat 20 APR 2019
    • Sat 20
    • 8C 17C
    • Sun 21 APR 2019
    • Sun 21
    • 9C 16C
    • Mon 22 APR 2019
    • Mon 22
    • 8C 15C
    • Tue 23 APR 2019
    • Tue 23
    • 9C 13C
    • Wed 24 APR 2019
    • Wed 24
    • 9C 13C
    • Thu 25 APR 2019
    • Thu 25
    • 9C 15C
    • Fri 26 APR 2019
    • Fri 26
    • 5C 11C
    • Sat 27 APR 2019
    • Sat 27
    • 8C 20C
    • Sun 28 APR 2019
    • Sun 28
    • 12C 19C
    • Mon 29 APR 2019
    • Mon 29
    • 12C 19C
    • Tue 30 APR 2019
    • Tue 30
    • 6C 13C
    • Wed 01 MAY 2019
    • Wed 01
    • 6C 14C
    • Thu 02 MAY 2019
    • Thu 02
    • 7C 15C
    • Fri 03 MAY 2019
    • Fri 03
    • 7C 17C
    • Sat 04 MAY 2019
    • Sat 04
    • 8C 18C
    • Sun 05 MAY 2019
    • Sun 05
    • 9C 19C

Date:

Time Type 0°C level Temp Chill Snow Cloud Speed Gust Dir Press
3:00 2440m 6°C 6_7 0cm 0% 7mph 7mph 1026mB
6:00 2375m 6°C 6_7 0cm 0% 7mph 9mph 1027mB
9:00 2315m 8°C 8_6 0cm 12% 6mph 7mph 1026mB
12:00 2461m 17°C 17_7 0cm 18% 7mph 9mph 1025mB
15:00 2499m 17°C 17_7 0cm 43% 7mph 10mph 1023mB
18:00 2565m 17°C 17_6 0cm 56% 6mph 10mph 1022mB
21:00 2463m 8°C 8_7 0cm 93% 7mph 10mph 1024mB
0:00 2482m 8°C 8_7 0cm 95% 7mph 11mph 1023mB
3:00 2384m 8°C 8_7 0cm 96% 7mph 11mph 1021mB
6:00 2328m 8°C 8_7 0cm 94% 7mph 11mph 1020mB
9:00 2354m 9°C 9_9 0cm 95% 9mph 11mph 1019mB
12:00 2451m 16°C 16_8 0cm 75% 8mph 13mph 1018mB
15:00 2486m 16°C 16_8 0cm 49% 8mph 13mph 1016mB
18:00 2520m 16°C 16_7 0cm 56% 7mph 11mph 1015mB
21:00 2561m 8°C 8_8 0cm 67% 8mph 12mph 1016mB
0:00 2512m 8°C 8_9 0cm 60% 9mph 13mph 1014mB
3:00 2614m 7°C 7_10 0cm 29% 10mph 15mph 1011mB
6:00 2590m 7°C 7_11 0cm 18% 11mph 17mph 1009mB
9:00 2578m 8°C 8_11 0cm 12% 11mph 16mph 1007mB
12:00 2544m 15°C 15_11 0cm 43% 11mph 16mph 1005mB
15:00 2506m 15°C 15_10 0cm 15% 10mph 14mph 1003mB
18:00 2631m 15°C 15_9 0cm 45% 9mph 14mph 1003mB
21:00 2550m 9°C 9_8 0cm 99% 8mph 13mph 1004mB
0:00 2372m 8°C 8_9 0cm 98% 9mph 14mph 1003mB
3:00 2329m 7°C 7_7 0cm 82% 7mph 11mph 1001mB
6:00 2342m 7°C 7_7 0cm 65% 7mph 9mph 1000mB
9:00 2382m 9°C 9_5 0cm 52% 5mph 6mph 1001mB
12:00 2482m 13°C 13_4 0cm 67% 4mph 5mph 1001mB
15:00 2521m 17°C 17_2 0cm 51% 2mph 2mph 1001mB
18:00 2612m 17°C 17_4 0cm 37% 4mph 6mph 1003mB
21:00 2562m 8°C 8_2 0cm 58% 2mph 2mph 1007mB
0:00 2357m 7°C 7_2 0cm 56% 2mph 2mph 1008mB
3:00 2304m 7°C 7_1 0cm 43% 1mph 1mph 1008mB
6:00 2256m 7°C 7_4 0cm 52% 4mph 7mph 1009mB
9:00 2243m 9°C 9_5 0cm 94% 5mph 9mph 1011mB
12:00 2314m 13°C 13_8 0cm 91% 8mph 11mph 1012mB
15:00 2346m 12°C 12_5 0cm 93% 5mph 8mph 1013mB
18:00 2352m 12°C 12_2 0cm 96% 2mph 3mph 1013mB
21:00 2485m 7°C 7_2 0cm 99% 2mph 3mph 1015mB
0:00 2401m 7°C 7_2 0cm 98% 2mph 3mph 1015mB
3:00 2132m 7°C 7_2 0cm 84% 2mph 3mph 1015mB
6:00 2296m 7°C 7_2 0cm 91% 2mph 3mph 1015mB
9:00 2350m 9°C 9_5 0cm 31% 5mph 10mph 1014mB
12:00 2302m 15°C 15_6 0cm 23% 6mph 10mph 1013mB
15:00 2269m 15°C 15_7 0cm 28% 7mph 8mph 1012mB
18:00 2175m 15°C 15_6 0cm 18% 6mph 9mph 1012mB
21:00 2139m 6°C 6_6 0cm 55% 6mph 11mph 1012mB
0:00 2022m 6°C 6_5 0cm 77% 5mph 7mph 1012mB
3:00 1829m 5°C 5_4 0cm 47% 4mph 6mph 1011mB
6:00 1629m 4°C 4_9 0cm 48% 9mph 17mph 1011mB
9:00 1744m 5°C 5_9 0cm 92% 9mph 15mph 1011mB
12:00 1929m 11°C 11_8 0cm 90% 8mph 16mph 1011mB
15:00 2031m 12°C 12_7 0cm 58% 7mph 12mph 1011mB
18:00 1965m 12°C 12_5 0cm 37% 5mph 7mph 1012mB
21:00 2092m 4°C 4_10 0cm 39% 10mph 16mph 1014mB
0:00 2151m 4°C 4_9 0cm 42% 9mph 13mph 1015mB
3:00 2393m 4°C 4_8 0cm 75% 8mph 12mph 1015mB
6:00 2606m 4°C 4_7 0cm 71% 7mph 11mph 1015mB
9:00 2582m 8°C 8_1 0cm 30% 1mph 3mph 1016mB
12:00 2599m 20°C 20_4 0cm 25% 4mph 6mph 1016mB
15:00 2709m 19°C 19_3 0cm 14% 3mph 6mph 1016mB
18:00 2830m 19°C 19_2 0cm 27% 2mph 3mph 1017mB
21:00 2933m 10°C 10_5 0cm 74% 5mph 6mph 1019mB
0:00 2877m 9°C 9_5 0cm 86% 5mph 6mph 1019mB
3:00 2919m 8°C 8_4 0cm 24% 4mph 4mph 1018mB
6:00 2863m 8°C 8_5 0cm 16% 5mph 5mph 1018mB
9:00 2947m 12°C 12_5 0cm 20% 5mph 6mph 1018mB
12:00 2802m 19°C 19_6 0cm 31% 6mph 8mph 1017mB
15:00 2815m 20°C 20_6 0cm 36% 6mph 9mph 1016mB
18:00 3175m 20°C 20_3 0cm 21% 3mph 4mph 1016mB
21:00 3017m 10°C 10_4 0cm 3% 4mph 5mph 1017mB
0:00 2846m 10°C 10_4 0cm 7% 4mph 5mph 1017mB
3:00 2803m 9°C 9_4 0cm 37% 4mph 4mph 1016mB
6:00 2790m 8°C 8_2 0cm 26% 2mph 2mph 1016mB
9:00 2824m 12°C 12_5 0cm 0% 5mph 4mph 1016mB
12:00 2732m 19°C 19_6 0cm 0% 6mph 5mph 1014mB
15:00 2900m 18°C 18_5 0cm 22% 5mph 6mph 1013mB
18:00 2936m 18°C 18_4 0cm 22% 4mph 4mph 1013mB
21:00 2961m 10°C 10_3 0cm 3% 3mph 4mph 1014mB
0:00 2916m 9°C 9_3 0cm 1% 3mph 4mph 1014mB
Afternoon 0.03125mm 0.0625 2954m 13°C 13_6 0cm 23% 6mph 7mph 1013mB
Morning 0.0833333mm 0.125 3119m 7°C 7_2 0cm 76% 2mph 3mph 1012mB
Afternoon 0.00520833mm 0 2825m 14°C 14_9 0cm 96% 9mph 11mph 1010mB
Morning 0.348958mm 0.0625 3022m 8°C 8_6 0cm 95% 6mph 9mph 1010mB
Afternoon 0.0520833mm 0.1875 3157m 15°C 15_6 0cm 71% 6mph 7mph 1010mB
Morning 0.0833333mm 0.875 3153m 9°C 9_2 0cm 68% 2mph 3mph 1012mB
Afternoon 0.0416667mm 0.4375 3137m 17°C 17_7 0cm 23% 7mph 9mph 1011mB
Morning 0.276042mm 3.3125 3355m 9°C 9_5 0cm 62% 5mph 7mph 1012mB
Afternoon 0mm 0 3284m 18°C 18_8 0cm 13% 8mph 8mph 1012mB
Morning 0.015625mm 0.1875 3429m 10°C 10_4 0cm 20% 4mph 5mph 1013mB
Afternoon 0.078125mm 0.875 3284m 19°C 19_11 0cm 67% 11mph 14mph 1012mB
Morning 0.182292mm 2.1875 3327m 9°C 9_5 0cm 14% 5mph 6mph 1013mB

16 day outlook at a glance

Forecast issued: 20/04/2019 06:27:59

Chat

Your comments and questions. In a resort? Let us know what it's like!


Characters left 250

For terms and conditions see Readers Comments on the Cookie and privacy policy page.